Skip Page Navigation
NASA JPL Caltech
NASA Logo - Jet Propulsion Laboratory + View the NASA Portal
+ Center for Near-Earth Object Studies
JPL Home Earth Solar System Stars & Galaxies Technology
JPL Solar System Dynamics
BODIES ORBITS EPHEMERIDES TOOLS PHYSICAL DATA DISCOVERY FAQ SITE MAP
IMPORTANT: The SSD Announcement email list is now available. Major changes are coming in the near future, including possible hostname and/or URL changes. To be notified of such changes, subscribe to this email list.

Please visit this page for more details.


JPL Small-Body Database Browser
Search: [ help ]  
379680 (2011 FP27)
Classification: Main-belt Asteroid          SPK-ID: 2379680
Ephemeris | Orbit Diagram | Orbital Elements | Mission Design | Physical Parameters | Discovery Circumstances ]

[ show orbit diagram ]
Orbital Elements at Epoch 2458600.5 (2019-Apr-27.0) TDB
Reference: JPL 18 (heliocentric ecliptic J2000)
 Element Value Uncertainty (1-sigma)   Units 
e .07097192329422687 6.6042e-08  
a 3.187281547030224 6.4263e-08 au
q 2.96107404555729 2.3305e-07 au
i 11.66433245814603 6.0827e-06 deg
node 91.67435255576054 3.3604e-05 deg
peri 301.6461041403427 5.5861e-05 deg
M 313.386915821305 4.4027e-05 deg
tp 2458869.612832810980
(2020-Jan-21.11283281)
0.00025564 TDB
period 2078.399692252783
5.69
6.2858e-05
1.721e-07
d
yr
n .1732101873099274 5.2384e-09 deg/d
Q 3.413489048503159 6.8823e-08 au
  Orbit Determination Parameters
   # obs. used (total)      177  
   data-arc span      4906 days (13.43 yr)  
   first obs. used      2006-05-26  
   last obs. used      2019-10-31  
   planetary ephem.      DE431  
   SB-pert. ephem.      SB431-N16  
   condition code      0  
   norm. resid. RMS      .59354  
   source      ORB  
   producer      Otto Matic  
   solution date      2019-Nov-08 12:33:55  

Additional Information
 Earth MOID = 1.98894 au 
 Jupiter MOID = 1.94672 au 
 T_jup = 3.162 
[ show covariance matrix ]

Ephemeris | Orbit Diagram | Orbital Elements | Mission Design | Physical Parameters | Discovery Circumstances ]

Physical Parameter Table
Parameter Symbol Value Units Sigma Reference Notes
absolute magnitude H 15.6   n/a MPO455732  

379680 (2011 FP27)          Discovered 2008-Nov-03 by CSS at Catalina
Reference: Last Updated: 2013-11-20

Alternate Designations
 2011 FP27 = 2008 VO4 = 2010 HN29 
Ephemeris | Orbit Diagram | Orbital Elements | Mission Design | Physical Parameters | Discovery Circumstances ]
ABOUT SSD CREDITS/AWARDS PRIVACY/COPYRIGHT GLOSSARY LINKS
FirstGov 2019-Dec-08 11:02 UT
(server date/time)  
NASA Home Page
Site Manager:   Ryan S. Park
Webmaster  Alan B. Chamberlin